Regional Weather Roundup
Issued by NWS Lake Charles, LA

Home | Current Version | Previous Version | Text Only | Print | Product List | Glossary On
Versions: 1 2 3 4 5 6 7 8 9 10 11 12 13 14 15 16 17 18 19 20 21 22 23 24 25 26 27
000
ASUS44 KLCH 030510
RWRLCH
REGIONAL WEATHER ROUNDUP
NATIONAL WEATHER SERVICE LAKE CHARLES LA
1200 AM CDT TUE MAY 03 2016

Note: "fair" indicates few or no clouds below 12,000 feet with no
significant weather and/or obstructions to visibility.


ACROSS SOUTHEAST TEXAS

CITY           SKY/WX    TMP DP  RH WIND       PRES   REMARKS
BEAUMONT       CLOUDY    67  62  84 N9        30.01R
BEAUMONT CITY  CLOUDY    67  60  79 N6        30.03R
ORANGE         CLOUDY    66  60  78 N6        30.02F
JASPER         CLOUDY    64  57  78 N8        30.06R
$$

ACROSS CENTRAL LOUISIANA

CITY           SKY/WX    TMP DP  RH WIND       PRES   REMARKS
LEESVILLE      NOT AVBL
FULLERTON      CLOUDY    64  61  90 VRB3      29.99F
ALEXANDRIA INT CLOUDY    64  61  90 N3        30.00F
ESLER FIELD    CLOUDY    66  60  81 VRB5      30.02S
DERIDDER       CLOUDY    64  62  93 N5        30.03S
OAKDALE        CLOUDY    65  62  87 N3        30.01R
OPELOUSAS      CLOUDY   N/A N/A N/A N9G16     29.99S
$$

ACROSS SOUTHWEST AND SOUTH CENTRAL LOUISIANA

CITY           SKY/WX    TMP DP  RH WIND       PRES   REMARKS
SULPHUR        CLOUDY    67  64  91 N8G16     30.01S
LAKE CHARLES   CLOUDY    67  62  84 N10       29.99F
CHENNAULT INT  CLOUDY    66  63  88 N7        30.00S
CAMERON PHI    NOT AVBL
DEQUINCY       CLOUDY    65  62  90 N6        30.02R
JENNINGS       CLOUDY    66  63  88 N12       30.00S
LAFAYETTE      CLOUDY    69  65  86 N6        29.98F
NEW IBERIA     CLOUDY    70  67  90 N7        29.98S
ABBEVILLE      MOCLDY    68  67  98 N5        29.98S
PATTERSON      NOT AVBL
SALT POINT       N/A     71  69  93 CALM      29.95F
$$

SELECTED SITES ACROSS THE REGION

CITY           SKY/WX    TMP DP  RH WIND       PRES   REMARKS
HOUSTON BUSH   MOCLDY    62  56  80 N9        30.04F
HOUSTON HOBBY  MOCLDY    66  57  72 N9        30.03S
GALVESTON      CLOUDY    68  63  84 N16       30.02S
COLLEGE STAT   MOCLDY    59  54  83 N8        30.08S
CONROE         CLEAR     61  55  81 N8        30.06S
HUNTSVILLE     CLEAR     59  54  83 N5        30.07R
LUFKIN         MOCLDY    58  54  86 NW3       30.06R
SHREVEPORT     MOCLDY    60  54  80 NW12      30.05S
MONROE         CLOUDY    63  61  93 NW5       30.03F
NATCHEZ MS     CLOUDY    63  59  88 N7        30.00F
BATON ROUGE    CLEAR     68  65  90 VRB3      29.97F
N.O. INTL ARPT PTCLDY    71  68  90 CALM      29.95F
SLIDELL        CLEAR     69  69 100 CALM      29.94F
$$

MARINE REPORTS

STATION/POSITION TIME  SKY/WX   TEMP    WIND        PRES    VSBY
                                AIR SEA DIR/SP/G
                 (UTC)          (F)     (DEG/KT/KT) (MB)    (MI)
BUOY 30 S HIGH I 0450            70 75  350/ 19/ 23 1014.9F
WVE H/P(F/S)=  3/ 4

SEA RIM ST PARK  0500            67     360/ 14/ 17 1016.4S
PORT ARTHUR      0400               76  350/  8/ 10 1016.4R
SABINE PASS N    0400            70 77   10/ 14/ 17 1017.4R
TEXAS POINT      NOT AVBL
CALCASIEU PASS   0400            69 76   20/ 10/ 13 1014.9R
LK CHARLES BEACH 0400            68 74              1016.4R
MARSH ISLAND     NOT AVBL
FRESH WATER LOCK 0400            72 74  310/  2/  2 1015.6S
AMERADA PASS     0400            71 72  330/  1/  4 1014.9R
$$




USA.gov is the U.S. government's official web portal to all federal, state and local government web resources and services.